Weather History for KTEB - November, 2012

Change the Weather History Date:

Wednesday, November 14, 2012

  Actual Average Record
Temperature  
Mean Temperature 41 °F -  
Max Temperature 48 °F 51 °F 69 °F (2011)
Min Temperature 34 °F 35 °F 28 °F (2004)
Degree Days  
Heating Degree Days 24    
Moisture  
Dew Point 25 °F    
Average Humidity 53    
Maximum Humidity 70    
Minimum Humidity 42    
Precipitation  
Precipitation 0.00 in - - ()
Sea Level Pressure  
Sea Level Pressure 30.48 in    
Wind  
Wind Speed 6 mph (North)    
Max Wind Speed 10 mph    
Max Gust Speed -    
Visibility 10 miles    
Events      
Averages and records for this station are not official NWS values.
T = Trace of Precipitation, MM = Missing Value Source: NWS Daily Summary

Daily Weather History Graph

Daily Weather History Graph

Search for Another Location

Airport or City:

Trip Planner

Search our weather history database for the weather conditions in past years. The results will help you decide how hot, cold, wet, or windy it might be!

Date:

Astronomy

Nov. 14, 2012 Rise Set
Actual Time 6:42 AM EST 4:38 PM EST
Civil Twilight 6:13 AM EST 5:07 PM EST
Nautical Twilight 5:40 AM EST 5:40 PM EST
Astronomical Twilight 5:07 AM EST 6:13 PM EST
Moon 7:29 AM EST (11/14) 5:23 PM EST (11/14)
Length of Visible Light 10h 54m
Length of Day
9h 55m
New Moon, 1% of the Moon is Illuminated
Nov 14
New Moon
Nov 20
First Quarter
Nov 28
Full
Dec 6
Last Quarter
Dec 13
New

Hourly Weather History & Observations

Time (EST) Temp. Windchill Dew Point Humidity Pressure Visibility Wind Dir Wind Speed Gust Speed Precip Events Conditions
12:51 AM 39.9 °F 37.8 °F 27.0 °F 60% 30.46 in 10.0 mi NNE 3.5 mph - N/A   Mostly Cloudy
1:51 AM 37.9 °F 33.5 °F 25.0 °F 60% 30.47 in 10.0 mi North 5.8 mph - N/A   Clear
2:51 AM 37.0 °F 32.4 °F 25.0 °F 62% 30.48 in 10.0 mi North 5.8 mph - N/A   Clear
3:51 AM 36.0 °F 33.3 °F 25.0 °F 64% 30.48 in 10.0 mi North 3.5 mph - N/A   Clear
4:51 AM 34.0 °F - 25.0 °F 70% 30.49 in 10.0 mi Calm Calm - N/A   Clear
5:51 AM 35.1 °F 31.0 °F 25.0 °F 67% 30.50 in 10.0 mi NNW 4.6 mph - N/A   Clear
6:51 AM 35.1 °F 30.1 °F 25.0 °F 67% 30.51 in 10.0 mi North 5.8 mph - N/A   Clear
7:51 AM 39.0 °F 34.0 °F 25.0 °F 57% 30.52 in 10.0 mi North 6.9 mph - N/A   Clear
8:51 AM 42.1 °F 36.1 °F 25.0 °F 51% 30.52 in 10.0 mi North 10.4 mph - N/A   Clear
9:51 AM 43.0 °F 37.7 °F 25.0 °F 49% 30.53 in 10.0 mi NNE 9.2 mph - N/A   Clear
10:51 AM 44.1 °F 38.6 °F 25.0 °F 47% 30.52 in 10.0 mi NNE 10.4 mph - N/A   Mostly Cloudy
11:51 AM 46.0 °F 41.4 °F 27.0 °F 47% 30.49 in 10.0 mi North 9.2 mph - N/A   Clear
12:51 PM 48.0 °F - 28.0 °F 46% 30.47 in 10.0 mi North 9.2 mph - N/A   Clear
1:51 PM 48.9 °F - 28.0 °F 44% 30.46 in 10.0 mi NE 10.4 mph - N/A   Partly Cloudy
2:51 PM 48.0 °F - 26.1 °F 42% 30.47 in 10.0 mi North 8.1 mph - N/A   Clear
3:51 PM 46.9 °F - 25.0 °F 42% 30.47 in 10.0 mi NNE 8.1 mph - N/A   Clear
4:51 PM 45.0 °F 41.8 °F 24.1 °F 44% 30.47 in 10.0 mi North 5.8 mph - N/A   Clear
5:51 PM 44.1 °F 40.1 °F 23.0 °F 43% 30.46 in 10.0 mi North 6.9 mph - N/A   Clear
6:51 PM 43.0 °F 38.8 °F 21.0 °F 42% 30.47 in 10.0 mi North 6.9 mph - N/A   Clear
7:51 PM 41.0 °F 36.4 °F 21.9 °F 47% 30.48 in 10.0 mi North 6.9 mph - N/A   Clear
8:51 PM 41.0 °F 38.0 °F 23.0 °F 49% 30.48 in 10.0 mi NNE 4.6 mph - N/A   Clear
9:51 PM 39.0 °F 33.4 °F 23.0 °F 53% 30.45 in 10.0 mi North 8.1 mph - N/A   Clear
10:51 PM 37.9 °F 35.5 °F 23.0 °F 55% 30.46 in 10.0 mi NNW 3.5 mph - N/A   Clear
11:51 PM 36.0 °F - 24.1 °F 62% 30.47 in 10.0 mi Calm Calm - N/A   Clear